Flag for U.S.A. Weather past 2 weeks in St. Paul, Minnesota, U.S.A.

Now
21 °F

Overcast.


Feels Like: 21 °F
Forecast: 18 / 26 °F
Wind: No wind

Location: St. Paul Downtown Holman Field

Current Time: Jan 31, 2015 at 7:58:19 AM

Latest Report: Jan 31, 2015 at 6:53 AM


Visibility: 10 mi

Pressure: 30.20 "Hg

Humidity: 92%

Dew point: 19 °F

Location of St. PaulLocation

Historic Weather in St. Paul — Graph

°F

St. Paul temperature yesterday

Maximum temperature yesterday: 27 °F (at 2:53 PM)
Minimum temperature yesterday: 11 °F (at 4:53 AM)
Average temperature yesterday: 18 °F

Past Weeks' High & Low Weather Summary

 TemperatureHumidityPressure
High44 °F (Jan 26, 2:53 PM)100% (Jan 24, 6:53 AM)30.60 "Hg (Jan 24, 6:53 AM)
Low11 °F (Jan 30, 4:53 AM)52% (Jan 25, 3:53 PM)29.52 "Hg (Jan 17, 12:53 PM)
Average29 °F79%30.01 "Hg
* Reported Jan 16 5:53 AM — Jan 31 5:53 AM, St. Paul, Weather by CustomWeather, © 2014

Note: Actual official high and low records may vary slightly from our data, if they occured in-between our weather recording intervals... More about our weather records

Advertising

St. Paul weather history for previous 24 hours

 ConditionsComfort  
Time TempWeatherWind HumidityBarometerVisibility
5:53 AM
Jan 31
23 °FClear.No wind88%30.18 "Hg10 mi
4:53 AM24 °FOvercast.3 mph88%30.17 "Hg10 mi
3:53 AM24 °FOvercast.No wind84%30.17 "Hg10 mi
2:53 AM23 °FOvercast.5 mph85%30.17 "Hg10 mi
1:53 AM22 °FOvercast.6 mph89%30.17 "Hg10 mi
12:53 AM23 °FOvercast.5 mph85%30.18 "Hg10 mi
12:04 AM23 °FOvercast.5 mph85%30.16 "Hg10 mi
10:53 PM
Jan 30
21 °FPassing clouds.5 mph88%30.22 "Hg10 mi
9:53 PM22 °FClear.5 mph85%30.24 "Hg10 mi
8:53 PM23 °FClear.6 mph78%30.26 "Hg10 mi
7:53 PM24 °FClear.5 mph75%30.28 "Hg10 mi
6:53 PM25 °FClear.9 mph75%30.29 "Hg9 mi
5:53 PM25 °FClear.7 mph72%30.30 "Hg10 mi
4:53 PM26 °FSunny.10 mph63%30.33 "Hg10 mi
3:53 PM27 °FSunny.9 mph55%30.37 "Hg10 mi
2:53 PM27 °FSunny.8 mph53%30.39 "Hg10 mi
1:53 PM24 °FPartly sunny.10 mph55%30.44 "Hg10 mi
12:53 PM21 °FPartly sunny.8 mph60%30.49 "Hg10 mi
11:53 AM20 °FSunny.10 mph62%30.53 "Hg10 mi
10:53 AM17 °FSunny.8 mph64%30.57 "Hg10 mi
9:53 AM14 °FPassing clouds.3 mph73%30.59 "Hg10 mi
8:53 AM12 °FPartly sunny.3 mph70%30.58 "Hg10 mi
7:53 AM11 °FSunny.5 mph73%30.58 "Hg10 mi
Weather by CustomWeather, © 2014

See weather overviewHow to use our weather pages